This is the latest recevied weather packets stored in our database for station/object KJ7IVE-13. If no packets are shown the sender has not sent any weather packets the latest 1 day(s).
| Time | Temp. | Humidity | Pressure | Rain* | Wind** | Luminosity | Snow |
|---|---|---|---|---|---|---|---|
| 1778024067 | 16.67° C | 10% | 1009.9 hPa | 0 mm | 2.24 m/s, 227° | 317 W/m² | - |
| 1778023765 | 17.22° C | 10% | 1010 hPa | 0 mm | 2.24 m/s, 165° | 346 W/m² | - |
| 1778023462 | 17.22° C | 10% | 1010.1 hPa | 0 mm | 1.34 m/s, 174° | 355 W/m² | - |
| 1778023159 | 17.22° C | 10% | 1010.1 hPa | 0 mm | 2.24 m/s, 226° | 362 W/m² | - |
| 1778022856 | 18.33° C | 10% | 1010.1 hPa | 0 mm | 0.45 m/s, 214° | 383 W/m² | - |
| 1778022554 | 17.22° C | 10% | 1010 hPa | 0 mm | 0.89 m/s, 220° | 381 W/m² | - |
| 1778022262 | 17.22° C | 10% | 1009.9 hPa | 0 mm | 0.89 m/s, 172° | 415 W/m² | - |
| 1778021948 | 16.67° C | 10% | 1010.1 hPa | 0 mm | 1.79 m/s, 186° | 417 W/m² | - |
| 1778021646 | 17.22° C | 10% | 1010.2 hPa | 0 mm | 2.68 m/s, 215° | 416 W/m² | - |
| 1778021346 | 16.11° C | 10% | 1010.2 hPa | 0 mm | 0.45 m/s, 208° | 395 W/m² | - |
| 1778021044 | 16.67° C | 10% | 1010.3 hPa | 0 mm | 1.34 m/s, 209° | 403 W/m² | - |
| 1778020740 | 16.11° C | 10% | 1010.6 hPa | 0 mm | 2.24 m/s, 236° | 419 W/m² | - |
| 1778020437 | 16.11° C | 10% | 1010.5 hPa | 0 mm | 1.79 m/s, 215° | 465 W/m² | - |
| 1778020133 | 16.11° C | 10% | 1010.5 hPa | 0 mm | 2.24 m/s, 211° | 501 W/m² | - |
| 1778019830 | 16.11° C | 10% | 1010.7 hPa | 0 mm | 0.45 m/s, 202° | 529 W/m² | - |
| 1778019526 | 16.11° C | 10% | 1010.8 hPa | 0 mm | 2.68 m/s, 143° | 552 W/m² | - |
| 1778019223 | 15.56° C | 10% | 1011 hPa | 0 mm | 2.24 m/s, 212° | 529 W/m² | - |
| 1778018920 | 15.56° C | 10% | 1010.7 hPa | 0 mm | 2.68 m/s, 149° | 606 W/m² | - |
| 1778018617 | 15.56° C | 10% | 1010.9 hPa | 0 mm | 3.13 m/s, 192° | 609 W/m² | - |
| 1778018315 | 15.56° C | 10% | 1010.9 hPa | 0 mm | 2.68 m/s, 121° | 249 W/m² | - |
| 1778018013 | 15° C | 10% | 1011.1 hPa | 0 mm | 2.24 m/s, 110° | 626 W/m² | - |
| 1778017711 | 15° C | 10% | 1011.3 hPa | 0 mm | 4.02 m/s, 123° | 711 W/m² | - |
| 1778017408 | 15° C | 10% | 1010.9 hPa | 0 mm | 2.24 m/s, 98° | 655 W/m² | - |
| 1778017105 | 15.56° C | 10% | 1011.1 hPa | 0 mm | 3.13 m/s, 159° | 352 W/m² | - |
| 1778016803 | 14.44° C | 10% | 1011.5 hPa | 0 mm | 2.68 m/s, 115° | 857 W/m² | - |
* Rain latest hour (hover to see other rain measurements)
** Current wind speed in m/s (hover to see current wind gust speed)